• MPC Preparation (Info)

  • MPEC 2006-U70 : 2006 UE185

    The following Minor Planet Electronic Circular may be linked-to from your own Web pages, but must not otherwise be redistributed electronically.

    A form allowing access to any MPEC is at the bottom of this page.


    Read MPEC 2006-U69 Read MPEC 2006-U71


    M.P.E.C. 2006-U70                                Issued 2006 Oct. 29, 16:01 UT
    
         The Minor Planet Electronic Circulars contain information on unusual
             minor planets and routine data on comets.  They are published
       on behalf of Commission 20 of the International Astronomical Union by the
              Minor Planet Center, Smithsonian Astrophysical Observatory,
                              Cambridge, MA 02138, U.S.A.
    
                 Prepared using the Tamkin Foundation Computer Network
    
                                  MPC@CFA.HARVARD.EDU
              URL http://cfa-www.harvard.edu/iau/mpc.html  ISSN 1523-6714
    
                                      2006 UE185
    
    Observations:
         K06UI5E  C2006 10 27.31282 02 15 06.98 +13 07 07.0          21.0 V EU070G96
         K06UI5E  C2006 10 27.32490 02 15 08.82 +13 07 11.6          21.4 V EU070G96
         K06UI5E  C2006 10 27.33701 02 15 10.65 +13 07 16.5          20.8 V EU070G96
         K06UI5E* C2006 10 27.39249 02 15 19.04 +13 07 38.8          20.8 V EU070G96
         K06UI5E  C2006 10 27.40354 02 15 20.73 +13 07 43.0          20.9 V EU070G96
         K06UI5E  C2006 10 27.41465 02 15 22.39 +13 07 48.0          21.2 V EU070G96
         K06UI5E  C2006 10 27.42577 02 15 24.15 +13 07 51.6          20.7 V EU070G96
         K06UI5E  C2006 10 28.20697 02 17 39.21 +13 13 21.8                 EU070291
         K06UI5E  C2006 10 28.21121 02 17 39.91 +13 13 23.6                 EU070291
         K06UI5E  C2006 10 28.21585 02 17 40.64 +13 13 25.9                 EU070291
         K06UI5E  C2006 10 28.25958 02 17 47.18 +13 13 44.2          21.0 V EU070G96
         K06UI5E  C2006 10 28.27831 02 17 50.02 +13 13 52.5          20.9 V EU070G96
         K06UI5E  C2006 10 28.28110 02 17 49.72 +13 13 50.1          21.6 R EU070734
         K06UI5E  C2006 10 28.28784 02 17 51.43 +13 13 56.5          21.0 V EU070G96
         K06UI5E  C2006 10 28.29573 02 17 51.98 +13 13 54.2          21.2 R EU070734
         K06UI5E  C2006 10 28.31914 02 17 55.46 +13 14 03.9          21.1 R EU070734
         K06UI5E  C2006 10 29.17680 02 20 21.53 +13 19 55.8          21.0 R EU070734
         K06UI5E  C2006 10 29.18558 02 20 22.87 +13 20 02.1          21.4 R EU070734
         K06UI5E  C2006 10 29.19436 02 20 24.22 +13 20 04.9          21.0 R EU070734
         K06UI5E  C2006 10 29.22698 02 20 29.89 +13 20 22.0                 EU070G96
         K06UI5E  C2006 10 29.23133 02 20 30.55 +13 20 24.3          20.8 V EU070G96
         K06UI5E  C2006 10 29.24133 02 20 32.02 +13 20 28.8                 EU070G96
         K06UI5E 5C2006 10 29.26285 02 20 35.65 +13 20 36.5          21.0 R EU070673
         K06UI5E 5C2006 10 29.26898 02 20 36.56 +13 20 38.9                 EU070673
         K06UI5E 5C2006 10 29.28044 02 20 38.17 +13 20 43.8                 EU070673
         K06UI5E 5C2006 10 29.28646 02 20 39.13 +13 20 46.4                 EU070673
    
    Observer details:
    291 LPL/Spacewatch II.  Observers R. S. McMillan, M. T. Read.  1.8-m f/2.7
        reflector + CCD.
    673 Table Mountain Observatory, Wrightwood.  Observer J. Young.  0.61-m f/16
        Cassegrain + CCD.
    734 Farpoint Observatory.  Observer G. Hug.  0.7-m reflector + CCD.
    G96 Mt. Lemmon Survey.  Observer A. R. Gibbs.  Measurers E. C. Beshore,
        E. J. Christensen, G. J. Garradd, A. R. Gibbs, A. D. Grauer, R. E. Hill,
        R. A. Kowalski, S. M. Larson, R. H. McNaught.  1.5-m reflector + CCD.
    
    Orbital elements:
    2006 UE185                                               Earth MOID = 0.1760 AU
    Epoch 2006 Oct. 12.0 TT = JDT 2454020.5                 MPC
    M 355.56179              (2000.0)            P               Q
    n   0.28200768     Peri.  183.75939     +0.82508275     -0.56493467
    a   2.3030079      Node   210.64430     +0.51886515     +0.76413627
    e   0.4919542      Incl.    1.05023     +0.22364573     +0.31135924
    P   3.49           H   24.4           G   0.15
    From 26 observations 2006 Oct. 27-29.
    
    Ephemeris:
    2006 UE185               a,e,i = 2.30, 0.49, 1                   q = 1.1700
    Date    TT    R. A. (2000) Decl.     Delta      r     Elong.  Phase     V
    2006 10 22    02 00.14   +12 27.9    0.177    1.172   176.1     3.3    21.3
    2006 11 01    02 28.15   +13 39.0    0.178    1.171   178.8     1.0    21.2
    2006 11 11    02 54.16   +14 37.3    0.191    1.181   176.5     2.9    21.5
    2006 11 21    03 16.44   +15 26.2    0.214    1.201   172.0     6.6    22.0
    
    Gareth V. Williams           (C) Copyright 2006 MPC           M.P.E.C. 2006-U70
    

    Read MPEC 2006-U69 Read MPEC 2006-U71


    MPEC number:

    Enter an MPEC number in one of the following forms:

    • 1997-B01 (the full form)
    • J97B01 (the packed version of the full form)
    • B01 (the abbreviated form)